Regional Weather Roundup
Issued by NWS New Orleans/Baton Rouge, LA

Home | Current Version | Previous Version | Text Only | Print | Product List | Glossary On
Versions: 1 2 3 4 5 6 7 8 9 10 11 12 13 14 15 16 17 18 19 20 21 22 23 24 25 26 27 28 29 30 31 32 33 34 35 36 37 38 39 40 41 42 43 44 45 46 47 48 49 50
501
ASUS44 KLIX 150110
RWRLIX
NEW ORLEANS REGIONAL WEATHER ROUNDUP
NATIONAL WEATHER SERVICE NEW ORLEANS LA
800 PM CDT SUN SEP 14 2014

NOTE: "FAIR" INDICATES FEW OR NO CLOUDS BELOW 12,000 FEET WITH NO
      SIGNIFICANT WEATHER AND/OR OBSTRUCTIONS TO VISIBILITY.
      SKY/WX - SKY CONDITION AND SIGNIFICANT WEATHER.
      TMP - AIR TEMPERATURE.     DP    - DEWPOINT TEMPERATURE.
      RH  - RELATIVE HUMIDITY.   PRES  - PRESSURE.
      HI  - HEAT INDEX.          WCI   - WIND CHILL INDEX.

*  THESE STATIONS ARE NOT NWS OR FAA STATIONS AND ARE NOT UNDER
   NWS QUALITY CONTROL.

LAZ038-040-048-061>063-065>067-069-150200-
SOUTHEAST LOUISIANA

CITY           SKY/WX    TMP DP  RH WIND       PRES   REMARKS
N.O. AUDUBON     N/A     84  76  76 MISG        N/A
N.O. INTL ARPT PTCLDY    85  72  65 E7        30.06R
N.O. LAKEFRONT CLEAR     84  74  71 E7        30.06R
N.O. DOWNTOWN*   N/A     84  72  65 CALM      30.06S
SLIDELL        PTCLDY    80  76  87 CALM      30.06R
BATON ROUGE    CLEAR     79  72  79 N3        30.07R
BOOTHVILLE     PTCLDY    83  77  82 E6        30.06R
BELLE CHASSE   CLEAR     81  74  79 NE5       30.05R
BOGALUSA*        N/A     80  73  81 N3        30.08R
GALLIANO*      NOT AVBL
NEW ROADS*       N/A     75  71  88 N5        30.08S
GONZALES*        N/A     78  78 100 CALM      30.05S
HAMMOND*       PTCLDY    81  73  78 CALM      30.08R
HOUMA*         CLEAR     81  73  76 NE3       30.05R
PORT FOURCHON* CLEAR     84  75  74 E10       30.08R

$$

MSZ070-080>082-150200-
SOUTHERN MISSISSIPPI

CITY           SKY/WX    TMP DP  RH WIND       PRES   REMARKS
MCCOMB         CLEAR     80  70  71 N5        30.09R
GULFPORT       PTCLDY    84  75  74 SE6       30.06R
BILOXI         NOT AVBL
PASCAGOULA     MOCLDY    78  76  93 CALM      30.07R
STENNIS ARPT*  PTCLDY    82  70  65 SE3       30.06

$$

COASTAL OBSERVATIONS
LAKE AND NEARSHORE STATIONS

STATION/POSITION TIME  TEMP    WIND        PRES    WAVE
                       AIR SEA DIR/SP/G            HT/PER
                 (UTC) (F)     (DEG/KT/KT) (MB)    (FT/S)
PASCAGOULA       0100   85     130/  4/  6 1017.7
WAVELAND YACHT   0100   85     130/  6/  7 1017.3
GRAND ISLE       0100   83 86   90/  7/ 11 1018.0
SOUTHWEST PASS   0100   84 91   80/ 15/ 17 1017.7
NEW CANAL        0100   84 83   70/  2/  4 1018.3
SHELL BEACH      0100   83 80   90/  6/  8 1017.6

OFFSHORE STATIONS

STATION/POSITION TIME  TEMP    WIND        PRES    WAVE
                       AIR SEA DIR/SP/G            HT/PER
                 (UTC) (F)     (DEG/KT/KT) (MB)    (FT/S)
64 S DAUPHIN ISL 0049   84 87  100/ 12/ 16 1018.1    4/ 8

$$




USA.gov is the U.S. government's official web portal to all federal, state and local government web resources and services.